Time,TemperatureF,DewpointF,PressureIn,WindDirection,WindDirectionDegrees,WindSpeedMPH,WindSpeedGustMPH,Humidity,HourlyPrecipIn,Conditions,Clouds,dailyrainin,SolarRadiationWatts/m^2,SoftwareType,DateUTC
2013-04-18 00:00:00,26.8,24.1,-100.00,SSW,209,1.8,4.0,89,0.00,,,-99.99,1.0,HOBO +U30 +Weather +,2013-04-18 06:00:00,
2013-04-18 00:05:00,26.6,24.0,-100.00,SSW,206,1.8,4.0,89,0.00,,,-99.99,1.0,HOBO +U30 +Weather +,2013-04-18 06:05:00,
2013-04-18 00:10:00,26.6,24.0,-100.00,SSW,205,3.4,5.1,89,0.00,,,-99.99,1.0,HOBO +U30 +Weather +,2013-04-18 06:10:00,
2013-04-18 00:15:00,26.3,23.7,-100.00,SSW,202,2.9,5.1,89,0.00,,,-99.99,1.0,HOBO +U30 +Weather +,2013-04-18 06:15:00,
2013-04-18 00:20:00,25.9,23.4,-100.00,South,190,3.4,5.1,90,0.00,,,-99.99,1.0,HOBO +U30 +Weather +,2013-04-18 06:20:00,
2013-04-18 00:25:00,25.6,23.2,-100.00,South,190,3.4,5.1,90,0.00,,,-99.99,1.0,HOBO +U30 +Weather +,2013-04-18 06:25:00,
2013-04-18 00:30:00,25.4,23.1,-100.00,South,188,4.0,5.6,90,0.00,,,-99.99,1.0,HOBO +U30 +Weather +,2013-04-18 06:30:00,
2013-04-18 00:35:00,25.2,23.1,-100.00,South,191,3.4,5.1,91,0.00,,,-99.99,1.0,HOBO +U30 +Weather +,2013-04-18 06:35:00,
2013-04-18 00:40:00,25.1,23.0,-100.00,SSW,198,4.0,5.6,91,0.00,,,-99.99,1.0,HOBO +U30 +Weather +,2013-04-18 06:40:00,
2013-04-18 00:45:00,25.0,23.0,-100.00,South,191,3.4,5.1,91,0.00,,,-99.99,1.0,HOBO +U30 +Weather +,2013-04-18 06:45:00,
2013-04-18 00:50:00,24.9,22.9,-100.00,SSW,195,4.0,5.6,92,0.00,,,-99.99,1.0,HOBO +U30 +Weather +,2013-04-18 06:50:00,
2013-04-18 00:55:00,24.8,22.9,-100.00,SSW,201,3.4,5.6,92,0.00,,,-99.99,1.0,HOBO +U30 +Weather +,2013-04-18 06:55:00,
2013-04-18 01:00:00,24.8,22.9,-100.00,SSW,204,2.9,4.5,92,0.00,,,-99.99,1.0,HOBO +U30 +Weather +,2013-04-18 07:00:00,
2013-04-18 01:05:00,24.7,22.7,-100.00,SSW,192,2.9,4.5,92,0.00,,,-99.99,1.0,HOBO +U30 +Weather +,2013-04-18 07:05:00,
2013-04-18 01:10:00,24.4,22.5,-100.00,South,187,4.0,5.1,92,0.00,,,-99.99,1.0,HOBO +U30 +Weather +,2013-04-18 07:10:00,
2013-04-18 01:15:00,24.3,22.5,-100.00,SSW,192,3.4,4.5,92,0.00,,,-99.99,1.0,HOBO +U30 +Weather +,2013-04-18 07:15:00,
2013-04-18 01:20:00,24.3,22.5,-100.00,South,190,3.4,5.1,92,0.00,,,-99.99,1.0,HOBO +U30 +Weather +,2013-04-18 07:20:00,
2013-04-18 01:25:00,24.3,22.5,-100.00,SSW,198,2.9,5.1,92,0.00,,,-99.99,1.0,HOBO +U30 +Weather +,2013-04-18 07:25:00,
2013-04-18 01:30:00,24.2,22.4,-100.00,SSW,206,2.2,4.5,92,0.00,,,-99.99,1.0,HOBO +U30 +Weather +,2013-04-18 07:30:00,
2013-04-18 01:35:00,24.2,22.4,-100.00,SSW,209,2.9,5.6,92,0.00,,,-99.99,1.0,HOBO +U30 +Weather +,2013-04-18 07:35:00,
2013-04-18 01:40:00,24.3,22.4,-100.00,SSW,212,3.4,5.6,92,0.00,,,-99.99,1.0,HOBO +U30 +Weather +,2013-04-18 07:40:00,
2013-04-18 01:45:00,24.2,22.2,-100.00,SSW,209,2.9,5.6,92,0.00,,,-99.99,1.0,HOBO +U30 +Weather +,2013-04-18 07:45:00,
2013-04-18 01:50:00,24.2,22.1,-100.00,SSW,211,2.2,5.6,91,0.00,,,-99.99,1.0,HOBO +U30 +Weather +,2013-04-18 07:50:00,
2013-04-18 01:55:00,24.0,21.7,-100.00,SSW,204,2.2,4.5,91,0.00,,,-99.99,1.0,HOBO +U30 +Weather +,2013-04-18 07:55:00,
2013-04-18 02:00:00,23.8,21.6,-100.00,SSW,204,2.9,4.5,91,0.00,,,-99.99,1.0,HOBO +U30 +Weather +,2013-04-18 08:00:00,
2013-04-18 02:05:00,23.8,21.5,-100.00,SSW,208,1.8,4.0,91,0.00,,,-99.99,1.0,HOBO +U30 +Weather +,2013-04-18 08:05:00,
2013-04-18 02:10:00,23.9,21.6,-100.00,SSW,206,1.1,4.0,90,0.00,,,-99.99,1.0,HOBO +U30 +Weather +,2013-04-18 08:10:00,
2013-04-18 02:15:00,23.9,21.5,-100.00,SW,236,2.9,5.1,90,0.00,,,-99.99,1.0,HOBO +U30 +Weather +,2013-04-18 08:15:00,
2013-04-18 02:20:00,23.8,21.5,-100.00,WSW,237,2.2,5.1,90,0.00,,,-99.99,1.0,HOBO +U30 +Weather +,2013-04-18 08:20:00,
2013-04-18 02:25:00,23.7,21.3,-100.00,SW,229,2.9,4.5,90,0.00,,,-99.99,1.0,HOBO +U30 +Weather +,2013-04-18 08:25:00,
2013-04-18 02:30:00,23.7,21.5,-100.00,SW,232,2.9,4.5,91,0.00,,,-99.99,1.0,HOBO +U30 +Weather +,2013-04-18 08:30:00,
2013-04-18 02:35:00,23.7,21.5,-100.00,SW,233,3.4,5.6,91,0.00,,,-99.99,1.0,HOBO +U30 +Weather +,2013-04-18 08:35:00,
2013-04-18 02:40:00,23.6,21.5,-100.00,WSW,237,4.0,5.6,91,0.00,,,-99.99,1.0,HOBO +U30 +Weather +,2013-04-18 08:40:00,
2013-04-18 02:45:00,23.7,21.5,-100.00,SW,229,2.2,4.0,91,0.00,,,-99.99,1.0,HOBO +U30 +Weather +,2013-04-18 08:45:00,
2013-04-18 02:50:00,23.4,21.1,-100.00,SSW,209,2.9,5.6,90,0.00,,,-99.99,1.0,HOBO +U30 +Weather +,2013-04-18 08:50:00,
2013-04-18 02:55:00,23.3,21.1,-100.00,SSW,213,4.0,6.3,91,0.00,,,-99.99,1.0,HOBO +U30 +Weather +,2013-04-18 08:55:00,
2013-04-18 03:00:00,23.4,21.2,-100.00,SW,219,3.4,5.6,91,0.00,,,-99.99,1.0,HOBO +U30 +Weather +,2013-04-18 09:00:00,
2013-04-18 03:05:00,23.4,21.2,-100.00,SW,234,2.9,5.6,91,0.00,,,-99.99,1.0,HOBO +U30 +Weather +,2013-04-18 09:05:00,
2013-04-18 03:10:00,23.4,21.1,-100.00,SW,230,3.4,6.3,91,0.00,,,-99.99,1.0,HOBO +U30 +Weather +,2013-04-18 09:10:00,
2013-04-18 03:15:00,23.3,21.0,-100.00,SW,218,1.1,2.9,90,0.00,,,-99.99,1.0,HOBO +U30 +Weather +,2013-04-18 09:15:00,
2013-04-18 03:20:00,22.9,20.6,-100.00,SSW,204,2.2,5.6,90,0.00,,,-99.99,1.0,HOBO +U30 +Weather +,2013-04-18 09:20:00,
2013-04-18 03:25:00,22.7,20.5,-100.00,SSW,211,2.2,5.1,91,0.00,,,-99.99,1.0,HOBO +U30 +Weather +,2013-04-18 09:25:00,
2013-04-18 03:30:00,22.6,20.4,-100.00,SSW,206,3.4,5.6,91,0.00,,,-99.99,1.0,HOBO +U30 +Weather +,2013-04-18 09:30:00,
2013-04-18 03:35:00,22.4,20.2,-100.00,SSW,206,3.4,6.3,91,0.00,,,-99.99,1.0,HOBO +U30 +Weather +,2013-04-18 09:35:00,
2013-04-18 03:40:00,22.4,20.3,-100.00,SSW,209,3.4,5.1,91,0.00,,,-99.99,1.0,HOBO +U30 +Weather +,2013-04-18 09:40:00,
2013-04-18 03:45:00,22.2,20.1,-100.00,SW,216,3.4,5.6,91,0.00,,,-99.99,1.0,HOBO +U30 +Weather +,2013-04-18 09:45:00,
2013-04-18 03:50:00,22.1,20.0,-100.00,SSW,208,2.9,6.3,91,0.00,,,-99.99,1.0,HOBO +U30 +Weather +,2013-04-18 09:50:00,
2013-04-18 03:55:00,21.8,19.7,-100.00,SSW,195,3.4,5.1,91,0.00,,,-99.99,1.0,HOBO +U30 +Weather +,2013-04-18 09:55:00,
2013-04-18 04:00:00,21.6,19.6,-100.00,SSW,197,2.9,4.5,91,0.00,,,-99.99,1.0,HOBO +U30 +Weather +,2013-04-18 10:00:00,
2013-04-18 04:05:00,21.6,19.5,-100.00,SSW,199,2.9,5.1,91,0.00,,,-99.99,1.0,HOBO +U30 +Weather +,2013-04-18 10:05:00,
2013-04-18 04:10:00,21.5,19.5,-100.00,SSW,197,4.0,5.1,92,0.00,,,-99.99,1.0,HOBO +U30 +Weather +,2013-04-18 10:10:00,
2013-04-18 04:15:00,21.2,19.3,-100.00,South,190,4.0,5.6,92,0.00,,,-99.99,1.0,HOBO +U30 +Weather +,2013-04-18 10:15:00,
2013-04-18 04:20:00,21.2,19.3,-100.00,SSW,195,3.4,5.1,92,0.00,,,-99.99,1.0,HOBO +U30 +Weather +,2013-04-18 10:20:00,
2013-04-18 04:25:00,21.2,19.4,-100.00,SSW,202,2.9,4.5,92,0.00,,,-99.99,1.0,HOBO +U30 +Weather +,2013-04-18 10:25:00,
2013-04-18 04:30:00,21.0,19.2,-100.00,SSW,199,3.4,5.1,92,0.00,,,-99.99,1.0,HOBO +U30 +Weather +,2013-04-18 10:30:00,
2013-04-18 04:35:00,20.9,19.2,-100.00,SSW,198,2.9,5.1,92,0.00,,,-99.99,1.0,HOBO +U30 +Weather +,2013-04-18 10:35:00,
2013-04-18 04:40:00,20.9,19.1,-100.00,SSW,204,1.8,4.0,92,0.00,,,-99.99,1.0,HOBO +U30 +Weather +,2013-04-18 10:40:00,
2013-04-18 04:45:00,20.7,19.0,-100.00,SSW,192,3.4,5.1,92,0.00,,,-99.99,1.0,HOBO +U30 +Weather +,2013-04-18 10:45:00,
2013-04-18 04:50:00,20.7,18.9,-100.00,SSW,197,4.0,6.3,92,0.00,,,-99.99,1.0,HOBO +U30 +Weather +,2013-04-18 10:50:00,
2013-04-18 04:55:00,20.6,18.9,-100.00,SSW,201,4.0,5.1,93,0.00,,,-99.99,1.0,HOBO +U30 +Weather +,2013-04-18 10:55:00,
2013-04-18 05:00:00,20.7,19.0,-100.00,SSW,204,2.9,4.5,93,0.00,,,-99.99,1.0,HOBO +U30 +Weather +,2013-04-18 11:00:00,
2013-04-18 05:05:00,20.8,19.1,-100.00,SSW,209,2.9,4.5,92,0.00,,,-99.99,1.0,HOBO +U30 +Weather +,2013-04-18 11:05:00,
2013-04-18 05:10:00,20.7,18.8,-100.00,SSW,208,2.2,5.1,92,0.00,,,-99.99,1.0,HOBO +U30 +Weather +,2013-04-18 11:10:00,
2013-04-18 05:15:00,20.6,18.7,-100.00,SSW,201,2.2,4.5,92,0.00,,,-99.99,1.0,HOBO +U30 +Weather +,2013-04-18 11:15:00,
2013-04-18 05:20:00,20.6,18.6,-100.00,SSW,202,2.9,4.5,91,0.00,,,-99.99,1.0,HOBO +U30 +Weather +,2013-04-18 11:20:00,
2013-04-18 05:25:00,20.6,18.5,-100.00,SSW,206,2.9,4.0,91,0.00,,,-99.99,1.0,HOBO +U30 +Weather +,2013-04-18 11:25:00,
2013-04-18 05:30:00,20.5,18.4,-100.00,SSW,205,2.9,5.1,91,0.00,,,-99.99,1.0,HOBO +U30 +Weather +,2013-04-18 11:30:00,
2013-04-18 05:35:00,20.3,18.2,-100.00,SSW,202,3.4,5.6,91,0.00,,,-99.99,1.0,HOBO +U30 +Weather +,2013-04-18 11:35:00,
2013-04-18 05:40:00,20.4,18.3,-100.00,SSW,201,3.4,5.1,91,0.00,,,-99.99,1.0,HOBO +U30 +Weather +,2013-04-18 11:40:00,
2013-04-18 05:45:00,20.6,18.4,-100.00,SSW,209,3.4,6.3,91,0.00,,,-99.99,1.0,HOBO +U30 +Weather +,2013-04-18 11:45:00,
2013-04-18 05:50:00,20.7,18.6,-100.00,SSW,212,3.4,6.7,91,0.00,,,-99.99,1.0,HOBO +U30 +Weather +,2013-04-18 11:50:00,
2013-04-18 05:55:00,20.6,18.3,-100.00,SSW,205,4.0,5.6,91,0.00,,,-99.99,1.0,HOBO +U30 +Weather +,2013-04-18 11:55:00,
2013-04-18 06:00:00,20.2,17.9,-100.00,SSW,194,4.0,5.6,90,0.00,,,-99.99,1.0,HOBO +U30 +Weather +,2013-04-18 12:00:00,
2013-04-18 06:05:00,19.7,17.6,-100.00,South,184,5.1,6.3,91,0.00,,,-99.99,1.0,HOBO +U30 +Weather +,2013-04-18 12:05:00,
2013-04-18 06:10:00,19.8,17.8,-100.00,South,190,4.5,5.6,91,0.00,,,-99.99,1.0,HOBO +U30 +Weather +,2013-04-18 12:10:00,
2013-04-18 06:15:00,19.8,17.7,-100.00,SSW,197,3.4,5.6,91,0.00,,,-99.99,3.0,HOBO +U30 +Weather +,2013-04-18 12:15:00,
2013-04-18 06:20:00,19.7,17.6,-100.00,SSW,199,3.4,5.1,91,0.00,,,-99.99,4.0,HOBO +U30 +Weather +,2013-04-18 12:20:00,
2013-04-18 06:25:00,19.5,17.4,-100.00,SSW,197,4.0,6.3,91,0.00,,,-99.99,8.0,HOBO +U30 +Weather +,2013-04-18 12:25:00,
2013-04-18 06:30:00,19.8,17.7,-100.00,SSW,199,2.9,5.1,91,0.00,,,-99.99,17.0,HOBO +U30 +Weather +,2013-04-18 12:30:00,
2013-04-18 06:35:00,19.9,17.7,-100.00,SSW,197,2.9,5.6,91,0.00,,,-99.99,26.0,HOBO +U30 +Weather +,2013-04-18 12:35:00,
2013-04-18 06:40:00,20.1,17.9,-100.00,SSW,192,4.0,5.6,91,0.00,,,-99.99,37.0,HOBO +U30 +Weather +,2013-04-18 12:40:00,
2013-04-18 06:45:00,20.0,17.7,-100.00,South,185,4.0,5.6,90,0.00,,,-99.99,48.0,HOBO +U30 +Weather +,2013-04-18 12:45:00,
2013-04-18 06:50:00,20.0,17.7,-100.00,South,184,4.5,6.3,90,0.00,,,-99.99,61.0,HOBO +U30 +Weather +,2013-04-18 12:50:00,
2013-04-18 06:55:00,20.4,18.1,-100.00,SSW,192,4.0,5.6,90,0.00,,,-99.99,74.0,HOBO +U30 +Weather +,2013-04-18 12:55:00,
2013-04-18 07:00:00,20.9,18.3,-100.00,SSW,194,2.9,4.5,89,0.00,,,-99.99,92.0,HOBO +U30 +Weather +,2013-04-18 13:00:00,
2013-04-18 07:05:00,21.1,18.4,-100.00,South,188,3.4,5.1,89,0.00,,,-99.99,108.0,HOBO +U30 +Weather +,2013-04-18 13:05:00,
2013-04-18 07:10:00,21.1,18.4,-100.00,South,191,4.0,5.6,89,0.00,,,-99.99,124.0,HOBO +U30 +Weather +,2013-04-18 13:10:00,
2013-04-18 07:15:00,21.5,18.7,-100.00,South,190,4.0,6.3,88,0.00,,,-99.99,137.0,HOBO +U30 +Weather +,2013-04-18 13:15:00,
2013-04-18 07:20:00,22.1,19.0,-100.00,SSW,194,4.0,6.3,87,0.00,,,-99.99,149.0,HOBO +U30 +Weather +,2013-04-18 13:20:00,
2013-04-18 07:25:00,22.4,19.3,-100.00,SSW,192,4.5,6.3,87,0.00,,,-99.99,162.0,HOBO +U30 +Weather +,2013-04-18 13:25:00,
2013-04-18 07:30:00,23.0,19.7,-100.00,SSW,194,4.5,6.3,87,0.00,,,-99.99,173.0,HOBO +U30 +Weather +,2013-04-18 13:30:00,
2013-04-18 07:35:00,24.3,20.8,-100.00,SSW,202,1.8,5.6,86,0.00,,,-99.99,186.0,HOBO +U30 +Weather +,2013-04-18 13:35:00,
2013-04-18 07:40:00,24.5,20.6,-100.00,SW,222,3.4,6.7,84,0.00,,,-99.99,198.0,HOBO +U30 +Weather +,2013-04-18 13:40:00,
2013-04-18 07:45:00,24.4,20.0,-100.00,SW,220,4.5,7.8,83,0.00,,,-99.99,211.0,HOBO +U30 +Weather +,2013-04-18 13:45:00,
2013-04-18 07:50:00,25.0,20.6,-100.00,SW,216,4.5,7.4,83,0.00,,,-99.99,224.0,HOBO +U30 +Weather +,2013-04-18 13:50:00,
2013-04-18 07:55:00,25.3,20.7,-100.00,SW,216,5.1,7.8,82,0.00,,,-99.99,239.0,HOBO +U30 +Weather +,2013-04-18 13:55:00,
2013-04-18 08:00:00,25.7,20.9,-100.00,SSW,212,4.5,6.7,81,0.00,,,-99.99,252.0,HOBO +U30 +Weather +,2013-04-18 14:00:00,
2013-04-18 08:05:00,26.7,21.7,-100.00,SSW,197,4.0,7.4,81,0.00,,,-99.99,264.0,HOBO +U30 +Weather +,2013-04-18 14:05:00,
2013-04-18 08:10:00,27.1,21.4,-100.00,SSW,208,4.5,8.9,78,0.00,,,-99.99,279.0,HOBO +U30 +Weather +,2013-04-18 14:10:00,
2013-04-18 08:15:00,27.0,21.4,-100.00,SW,226,6.3,8.5,79,0.00,,,-99.99,293.0,HOBO +U30 +Weather +,2013-04-18 14:15:00,
2013-04-18 08:20:00,27.5,21.4,-100.00,SW,225,5.1,7.8,77,0.00,,,-99.99,307.0,HOBO +U30 +Weather +,2013-04-18 14:20:00,
2013-04-18 08:25:00,27.6,21.3,-100.00,SW,216,5.6,10.1,76,0.00,,,-99.99,321.0,HOBO +U30 +Weather +,2013-04-18 14:25:00,
2013-04-18 08:30:00,27.8,21.5,-100.00,SW,215,7.4,10.1,76,0.00,,,-99.99,336.0,HOBO +U30 +Weather +,2013-04-18 14:30:00,
2013-04-18 08:35:00,28.0,21.3,-100.00,WSW,244,7.8,12.3,75,0.00,,,-99.99,347.0,HOBO +U30 +Weather +,2013-04-18 14:35:00,
2013-04-18 08:40:00,27.9,21.2,-100.00,SW,230,8.5,13.4,75,0.00,,,-99.99,362.0,HOBO +U30 +Weather +,2013-04-18 14:40:00,
2013-04-18 08:45:00,28.7,22.1,-100.00,SW,219,6.7,10.7,76,0.00,,,-99.99,376.0,HOBO +U30 +Weather +,2013-04-18 14:45:00,
2013-04-18 08:50:00,28.9,21.9,-100.00,SW,218,6.3,10.1,74,0.00,,,-99.99,389.0,HOBO +U30 +Weather +,2013-04-18 14:50:00,
2013-04-18 08:55:00,30.0,22.7,-100.00,SW,233,5.6,11.2,73,0.00,,,-99.99,403.0,HOBO +U30 +Weather +,2013-04-18 14:55:00,
2013-04-18 09:00:00,29.7,22.3,-100.00,SW,236,6.3,10.7,73,0.00,,,-99.99,417.0,HOBO +U30 +Weather +,2013-04-18 15:00:00,
2013-04-18 09:05:00,30.6,22.7,-100.00,WSW,241,7.4,10.7,72,0.00,,,-99.99,429.0,HOBO +U30 +Weather +,2013-04-18 15:05:00,
2013-04-18 09:10:00,31.3,22.3,-100.00,SW,234,7.4,13.4,69,0.00,,,-99.99,443.0,HOBO +U30 +Weather +,2013-04-18 15:10:00,
2013-04-18 09:15:00,31.6,22.7,-100.00,WSW,243,7.8,12.3,69,0.00,,,-99.99,457.0,HOBO +U30 +Weather +,2013-04-18 15:15:00,
2013-04-18 09:20:00,31.3,21.6,-100.00,WSW,256,8.9,13.4,66,0.00,,,-99.99,468.0,HOBO +U30 +Weather +,2013-04-18 15:20:00,
2013-04-18 09:25:00,31.8,21.7,-100.00,WSW,244,10.1,16.3,66,0.00,,,-99.99,482.0,HOBO +U30 +Weather +,2013-04-18 15:25:00,
2013-04-18 09:30:00,32.3,21.5,-100.00,WSW,241,7.8,14.5,64,0.00,,,-99.99,496.0,HOBO +U30 +Weather +,2013-04-18 15:30:00,
2013-04-18 09:35:00,32.5,21.0,-100.00,SW,227,8.5,14.5,62,0.00,,,-99.99,509.0,HOBO +U30 +Weather +,2013-04-18 15:35:00,
2013-04-18 09:40:00,33.0,21.3,-100.00,SW,215,8.9,13.4,61,0.00,,,-99.99,522.0,HOBO +U30 +Weather +,2013-04-18 15:40:00,
2013-04-18 09:45:00,33.0,22.0,-100.00,SW,236,8.9,13.4,63,0.00,,,-99.99,533.0,HOBO +U30 +Weather +,2013-04-18 15:45:00,
2013-04-18 09:50:00,33.5,21.9,-100.00,SSW,211,8.9,14.5,62,0.00,,,-99.99,543.0,HOBO +U30 +Weather +,2013-04-18 15:50:00,
2013-04-18 09:55:00,33.6,21.5,-100.00,SW,225,8.9,13.0,60,0.00,,,-99.99,556.0,HOBO +U30 +Weather +,2013-04-18 15:55:00,
2013-04-18 10:00:00,34.4,22.4,-100.00,WSW,237,8.9,12.3,61,0.00,,,-99.99,568.0,HOBO +U30 +Weather +,2013-04-18 16:00:00,
2013-04-18 10:05:00,34.7,22.3,-100.00,SW,227,8.5,12.3,60,0.00,,,-99.99,581.0,HOBO +U30 +Weather +,2013-04-18 16:05:00,
2013-04-18 10:10:00,34.9,22.6,-100.00,SW,229,7.8,13.4,60,0.00,,,-99.99,591.0,HOBO +U30 +Weather +,2013-04-18 16:10:00,
2013-04-18 10:15:00,35.9,23.2,-100.00,SW,218,7.4,14.5,59,0.00,,,-99.99,602.0,HOBO +U30 +Weather +,2013-04-18 16:15:00,
2013-04-18 10:20:00,35.3,23.0,-100.00,SW,236,7.8,13.0,60,0.00,,,-99.99,612.0,HOBO +U30 +Weather +,2013-04-18 16:20:00,
2013-04-18 10:25:00,37.2,23.9,-100.00,SW,216,6.7,9.6,58,0.00,,,-99.99,623.0,HOBO +U30 +Weather +,2013-04-18 16:25:00,
2013-04-18 10:30:00,37.3,23.6,-100.00,SW,227,6.7,11.2,57,0.00,,,-99.99,632.0,HOBO +U30 +Weather +,2013-04-18 16:30:00,
2013-04-18 10:35:00,38.0,23.7,-100.00,SW,236,5.6,10.7,56,0.00,,,-99.99,642.0,HOBO +U30 +Weather +,2013-04-18 16:35:00,
2013-04-18 10:40:00,39.1,23.8,-100.00,SW,223,6.3,12.3,53,0.00,,,-99.99,654.0,HOBO +U30 +Weather +,2013-04-18 16:40:00,
2013-04-18 10:45:00,40.0,24.3,-100.00,SSW,212,6.7,11.2,53,0.00,,,-99.99,662.0,HOBO +U30 +Weather +,2013-04-18 16:45:00,
2013-04-18 10:50:00,39.9,24.6,-100.00,SSW,205,6.7,11.2,54,0.00,,,-99.99,671.0,HOBO +U30 +Weather +,2013-04-18 16:50:00,
2013-04-18 10:55:00,41.1,25.3,-100.00,SSW,206,4.5,8.9,52,0.00,,,-99.99,678.0,HOBO +U30 +Weather +,2013-04-18 16:55:00,
2013-04-18 11:00:00,42.2,25.4,-100.00,SW,230,4.5,7.8,50,0.00,,,-99.99,688.0,HOBO +U30 +Weather +,2013-04-18 17:00:00,
2013-04-18 11:05:00,42.3,24.3,-100.00,WSW,254,4.0,8.5,48,0.00,,,-99.99,694.0,HOBO +U30 +Weather +,2013-04-18 17:05:00,
2013-04-18 11:10:00,41.9,24.3,-100.00,SW,227,5.1,12.3,49,0.00,,,-99.99,704.0,HOBO +U30 +Weather +,2013-04-18 17:10:00,
2013-04-18 11:15:00,41.6,24.1,-100.00,WSW,250,6.3,10.1,49,0.00,,,-99.99,711.0,HOBO +U30 +Weather +,2013-04-18 17:15:00,
2013-04-18 11:20:00,42.9,24.6,-100.00,WSW,240,5.6,11.2,48,0.00,,,-99.99,718.0,HOBO +U30 +Weather +,2013-04-18 17:20:00,
2013-04-18 11:25:00,44.1,24.8,-100.00,WSW,239,4.0,7.8,46,0.00,,,-99.99,726.0,HOBO +U30 +Weather +,2013-04-18 17:25:00,
2013-04-18 11:30:00,43.8,24.5,-100.00,WSW,247,5.6,10.1,46,0.00,,,-99.99,729.0,HOBO +U30 +Weather +,2013-04-18 17:30:00,
2013-04-18 11:35:00,44.1,24.8,-100.00,West,275,5.6,11.9,46,0.00,,,-99.99,738.0,HOBO +U30 +Weather +,2013-04-18 17:35:00,
2013-04-18 11:40:00,44.3,24.1,-100.00,WSW,253,5.6,11.9,44,0.00,,,-99.99,747.0,HOBO +U30 +Weather +,2013-04-18 17:40:00,
2013-04-18 11:45:00,44.3,24.1,-100.00,WSW,246,6.3,10.1,44,0.00,,,-99.99,753.0,HOBO +U30 +Weather +,2013-04-18 17:45:00,
2013-04-18 11:50:00,44.6,23.1,-100.00,WSW,237,6.7,12.3,42,0.00,,,-99.99,766.0,HOBO +U30 +Weather +,2013-04-18 17:50:00,
2013-04-18 11:55:00,45.5,23.2,-100.00,WSW,254,6.3,14.1,41,0.00,,,-99.99,774.0,HOBO +U30 +Weather +,2013-04-18 17:55:00,
2013-04-18 12:00:00,47.5,23.9,-100.00,WSW,250,5.6,12.3,39,0.00,,,-99.99,796.0,HOBO +U30 +Weather +,2013-04-18 18:00:00,
2013-04-18 12:05:00,48.0,23.5,-100.00,SSW,211,5.6,10.7,37,0.00,,,-99.99,248.0,HOBO +U30 +Weather +,2013-04-18 18:05:00,
2013-04-18 12:10:00,47.6,23.6,-100.00,West,267,6.3,12.3,38,0.00,,,-99.99,864.0,HOBO +U30 +Weather +,2013-04-18 18:10:00,
2013-04-18 12:15:00,46.6,20.8,-100.00,WSW,237,7.8,15.2,35,0.00,,,-99.99,967.0,HOBO +U30 +Weather +,2013-04-18 18:15:00,
2013-04-18 12:20:00,47.2,19.7,-100.00,WSW,248,7.8,16.3,33,0.00,,,-99.99,291.0,HOBO +U30 +Weather +,2013-04-18 18:20:00,
2013-04-18 12:25:00,46.7,20.0,-100.00,West,268,8.5,17.4,34,0.00,,,-99.99,303.0,HOBO +U30 +Weather +,2013-04-18 18:25:00,
2013-04-18 12:30:00,47.4,17.8,-100.00,West,279,10.1,19.2,30,0.00,,,-99.99,946.0,HOBO +U30 +Weather +,2013-04-18 18:30:00,
2013-04-18 12:35:00,46.3,18.7,-100.00,West,268,7.8,16.3,32,0.00,,,-99.99,236.0,HOBO +U30 +Weather +,2013-04-18 18:35:00,
2013-04-18 12:40:00,48.6,19.1,-100.00,West,271,6.3,14.5,30,0.00,,,-99.99,937.0,HOBO +U30 +Weather +,2013-04-18 18:40:00,
2013-04-18 12:45:00,47.8,18.4,-100.00,West,265,7.8,17.4,30,0.00,,,-99.99,606.0,HOBO +U30 +Weather +,2013-04-18 18:45:00,
2013-04-18 12:50:00,47.5,19.7,-100.00,West,265,10.1,19.2,32,0.00,,,-99.99,356.0,HOBO +U30 +Weather +,2013-04-18 18:50:00,
2013-04-18 12:55:00,48.8,20.0,-100.00,West,261,8.9,15.9,31,0.00,,,-99.99,654.0,HOBO +U30 +Weather +,2013-04-18 18:55:00,
2013-04-18 13:00:00,47.4,19.7,-100.00,WSW,248,10.1,16.3,32,0.00,,,-99.99,352.0,HOBO +U30 +Weather +,2013-04-18 19:00:00,
2013-04-18 13:05:00,47.9,19.1,-100.00,West,263,9.6,17.4,31,0.00,,,-99.99,1007.0,HOBO +U30 +Weather +,2013-04-18 19:05:00,
2013-04-18 13:10:00,48.6,18.7,-100.00,WSW,258,6.7,12.3,30,0.00,,,-99.99,321.0,HOBO +U30 +Weather +,2013-04-18 19:10:00,
2013-04-18 13:15:00,47.3,17.9,-100.00,WNW,293,10.1,22.6,30,0.00,,,-99.99,237.0,HOBO +U30 +Weather +,2013-04-18 19:15:00,
2013-04-18 13:20:00,49.5,18.2,-100.00,WNW,285,7.4,17.4,28,0.00,,,-99.99,438.0,HOBO +U30 +Weather +,2013-04-18 19:20:00,
2013-04-18 13:25:00,48.1,19.1,-100.00,WSW,257,8.9,19.7,31,0.00,,,-99.99,557.0,HOBO +U30 +Weather +,2013-04-18 19:25:00,
2013-04-18 13:30:00,50.3,19.4,-100.00,WSW,257,8.5,16.3,29,0.00,,,-99.99,1004.0,HOBO +U30 +Weather +,2013-04-18 19:30:00,
2013-04-18 13:35:00,49.8,18.4,-100.00,West,272,7.8,18.1,28,0.00,,,-99.99,382.0,HOBO +U30 +Weather +,2013-04-18 19:35:00,
2013-04-18 13:40:00,49.5,17.3,-100.00,WNW,293,7.4,14.1,27,0.00,,,-99.99,1009.0,HOBO +U30 +Weather +,2013-04-18 19:40:00,
2013-04-18 13:45:00,49.8,15.6,-100.00,West,265,12.3,19.2,25,0.00,,,-99.99,237.0,HOBO +U30 +Weather +,2013-04-18 19:45:00,
2013-04-18 13:50:00,48.9,15.5,-100.00,WNW,288,10.1,19.7,25,0.00,,,-99.99,292.0,HOBO +U30 +Weather +,2013-04-18 19:50:00,
2013-04-18 13:55:00,48.8,15.6,-100.00,West,277,10.7,19.7,26,0.00,,,-99.99,637.0,HOBO +U30 +Weather +,2013-04-18 19:55:00,
2013-04-18 14:00:00,49.4,15.0,-100.00,WNW,286,10.7,19.2,24,0.00,,,-99.99,258.0,HOBO +U30 +Weather +,2013-04-18 20:00:00,
2013-04-18 14:05:00,50.1,15.7,-100.00,WNW,300,13.4,24.2,25,0.00,,,-99.99,857.0,HOBO +U30 +Weather +,2013-04-18 20:05:00,
2013-04-18 14:10:00,50.1,14.4,-100.00,West,277,10.1,21.5,23,0.00,,,-99.99,857.0,HOBO +U30 +Weather +,2013-04-18 20:10:00,
2013-04-18 14:15:00,51.5,16.3,-100.00,West,265,11.9,20.4,24,0.00,,,-99.99,962.0,HOBO +U30 +Weather +,2013-04-18 20:15:00,
2013-04-18 14:20:00,51.5,16.0,-100.00,WNW,302,15.9,25.3,24,0.00,,,-99.99,889.0,HOBO +U30 +Weather +,2013-04-18 20:20:00,
2013-04-18 14:25:00,50.8,15.4,-100.00,West,272,13.4,25.3,24,0.00,,,-99.99,897.0,HOBO +U30 +Weather +,2013-04-18 20:25:00,
2013-04-18 14:30:00,50.7,15.9,-100.00,West,281,13.4,26.4,24,0.00,,,-99.99,201.0,HOBO +U30 +Weather +,2013-04-18 20:30:00,
2013-04-18 14:35:00,51.2,15.7,-100.00,WNW,289,13.0,27.1,24,0.00,,,-99.99,797.0,HOBO +U30 +Weather +,2013-04-18 20:35:00,
2013-04-18 14:40:00,50.4,14.5,-100.00,WNW,289,13.0,25.9,23,0.00,,,-99.99,261.0,HOBO +U30 +Weather +,2013-04-18 20:40:00,
2013-04-18 14:45:00,52.4,16.3,-100.00,WNW,293,10.7,23.7,23,0.00,,,-99.99,748.0,HOBO +U30 +Weather +,2013-04-18 20:45:00,
2013-04-18 14:50:00,51.0,16.2,-100.00,West,281,10.1,20.4,24,0.00,,,-99.99,826.0,HOBO +U30 +Weather +,2013-04-18 20:50:00,
2013-04-18 14:55:00,51.4,15.4,-100.00,West,278,10.7,18.1,23,0.00,,,-99.99,241.0,HOBO +U30 +Weather +,2013-04-18 20:55:00,
2013-04-18 15:00:00,51.0,16.0,-100.00,WNW,299,10.7,20.8,24,0.00,,,-99.99,248.0,HOBO +U30 +Weather +,2013-04-18 21:00:00,
2013-04-18 15:05:00,51.2,17.0,-100.00,NW,307,11.9,18.6,25,0.00,,,-99.99,738.0,HOBO +U30 +Weather +,2013-04-18 21:05:00,
2013-04-18 15:10:00,50.3,17.0,-100.00,WNW,289,14.5,25.3,26,0.00,,,-99.99,629.0,HOBO +U30 +Weather +,2013-04-18 21:10:00,
2013-04-18 15:15:00,51.0,16.5,-100.00,WNW,292,10.7,19.2,25,0.00,,,-99.99,288.0,HOBO +U30 +Weather +,2013-04-18 21:15:00,
2013-04-18 15:20:00,52.6,17.8,-100.00,West,274,8.5,15.9,24,0.00,,,-99.99,809.0,HOBO +U30 +Weather +,2013-04-18 21:20:00,
2013-04-18 15:25:00,52.6,17.4,-100.00,West,263,8.9,18.6,24,0.00,,,-99.99,771.0,HOBO +U30 +Weather +,2013-04-18 21:25:00,
2013-04-18 15:30:00,52.7,18.4,-100.00,WNW,286,8.9,17.4,25,0.00,,,-99.99,249.0,HOBO +U30 +Weather +,2013-04-18 21:30:00,
2013-04-18 15:35:00,52.2,18.1,-100.00,West,281,10.7,20.4,25,0.00,,,-99.99,221.0,HOBO +U30 +Weather +,2013-04-18 21:35:00,
2013-04-18 15:40:00,51.4,17.3,-100.00,WNW,291,11.9,23.0,25,0.00,,,-99.99,191.0,HOBO +U30 +Weather +,2013-04-18 21:40:00,
2013-04-18 15:45:00,51.4,17.7,-100.00,West,278,7.8,17.0,26,0.00,,,-99.99,206.0,HOBO +U30 +Weather +,2013-04-18 21:45:00,
2013-04-18 15:50:00,52.3,18.3,-100.00,WNW,286,10.1,19.2,25,0.00,,,-99.99,182.0,HOBO +U30 +Weather +,2013-04-18 21:50:00,
2013-04-18 15:55:00,52.3,18.0,-100.00,WNW,282,10.1,18.1,25,0.00,,,-99.99,558.0,HOBO +U30 +Weather +,2013-04-18 21:55:00,
2013-04-18 16:00:00,53.5,17.5,-100.00,WNW,291,10.7,20.4,23,0.00,,,-99.99,461.0,HOBO +U30 +Weather +,2013-04-18 22:00:00,
2013-04-18 16:05:00,52.6,17.3,-100.00,WNW,288,10.7,18.6,24,0.00,,,-99.99,368.0,HOBO +U30 +Weather +,2013-04-18 22:05:00,
2013-04-18 16:10:00,52.7,17.4,-100.00,WNW,302,9.6,16.3,24,0.00,,,-99.99,283.0,HOBO +U30 +Weather +,2013-04-18 22:10:00,
2013-04-18 16:15:00,52.5,17.7,-100.00,WNW,285,11.9,17.0,25,0.00,,,-99.99,229.0,HOBO +U30 +Weather +,2013-04-18 22:15:00,
2013-04-18 16:20:00,52.8,17.8,-100.00,WNW,292,11.2,21.5,24,0.00,,,-99.99,288.0,HOBO +U30 +Weather +,2013-04-18 22:20:00,
2013-04-18 16:25:00,51.8,17.4,-100.00,WNW,291,13.4,23.0,25,0.00,,,-99.99,261.0,HOBO +U30 +Weather +,2013-04-18 22:25:00,
2013-04-18 16:30:00,53.4,18.5,-100.00,WNW,293,11.2,20.8,25,0.00,,,-99.99,562.0,HOBO +U30 +Weather +,2013-04-18 22:30:00,
2013-04-18 16:35:00,52.7,17.9,-100.00,WNW,296,10.1,18.6,25,0.00,,,-99.99,313.0,HOBO +U30 +Weather +,2013-04-18 22:35:00,
2013-04-18 16:40:00,52.3,18.3,-100.00,WNW,285,15.2,27.1,25,0.00,,,-99.99,266.0,HOBO +U30 +Weather +,2013-04-18 22:40:00,
2013-04-18 16:45:00,52.7,18.7,-100.00,West,275,12.3,24.8,25,0.00,,,-99.99,244.0,HOBO +U30 +Weather +,2013-04-18 22:45:00,
2013-04-18 16:50:00,52.4,18.8,-100.00,WNW,288,10.7,20.8,26,0.00,,,-99.99,226.0,HOBO +U30 +Weather +,2013-04-18 22:50:00,
2013-04-18 16:55:00,52.1,18.8,-100.00,WNW,289,12.3,20.8,26,0.00,,,-99.99,216.0,HOBO +U30 +Weather +,2013-04-18 22:55:00,
2013-04-18 17:00:00,52.1,18.8,-100.00,WNW,285,12.3,22.6,26,0.00,,,-99.99,239.0,HOBO +U30 +Weather +,2013-04-18 23:00:00,
2013-04-18 17:05:00,53.0,19.3,-100.00,West,267,9.6,20.4,26,0.00,,,-99.99,209.0,HOBO +U30 +Weather +,2013-04-18 23:05:00,
2013-04-18 17:10:00,52.3,19.3,-100.00,West,267,11.9,20.8,26,0.00,,,-99.99,156.0,HOBO +U30 +Weather +,2013-04-18 23:10:00,
2013-04-18 17:15:00,52.5,19.6,-100.00,West,279,12.3,20.4,27,0.00,,,-99.99,162.0,HOBO +U30 +Weather +,2013-04-18 23:15:00,
2013-04-18 17:20:00,52.9,19.5,-100.00,West,268,12.3,18.6,26,0.00,,,-99.99,196.0,HOBO +U30 +Weather +,2013-04-18 23:20:00,
2013-04-18 17:25:00,52.6,19.2,-100.00,WNW,292,11.2,20.4,26,0.00,,,-99.99,177.0,HOBO +U30 +Weather +,2013-04-18 23:25:00,
2013-04-18 17:30:00,53.0,19.5,-100.00,WNW,299,8.9,17.4,26,0.00,,,-99.99,189.0,HOBO +U30 +Weather +,2013-04-18 23:30:00,
2013-04-18 17:35:00,52.8,19.4,-100.00,NW,310,13.0,19.2,26,0.00,,,-99.99,277.0,HOBO +U30 +Weather +,2013-04-18 23:35:00,
2013-04-18 17:40:00,53.3,20.1,-100.00,WNW,296,10.1,23.7,26,0.00,,,-99.99,207.0,HOBO +U30 +Weather +,2013-04-18 23:40:00,
2013-04-18 17:45:00,53.1,20.3,-100.00,WNW,289,11.9,19.7,27,0.00,,,-99.99,181.0,HOBO +U30 +Weather +,2013-04-18 23:45:00,
2013-04-18 17:50:00,52.9,20.1,-100.00,WNW,296,11.2,18.1,27,0.00,,,-99.99,211.0,HOBO +U30 +Weather +,2013-04-18 23:50:00,
2013-04-18 17:55:00,52.4,20.1,-100.00,WNW,293,14.5,23.0,27,0.00,,,-99.99,163.0,HOBO +U30 +Weather +,2013-04-18 23:55:00,
2013-04-18 18:00:00,53.0,20.1,-100.00,WNW,289,7.8,14.5,27,0.00,,,-99.99,143.0,HOBO +U30 +Weather +,2013-04-19 00:00:00,
2013-04-18 18:05:00,52.9,20.0,-100.00,WNW,295,11.2,21.5,27,0.00,,,-99.99,99.0,HOBO +U30 +Weather +,2013-04-19 00:05:00,
2013-04-18 18:10:00,52.7,19.7,-100.00,WNW,299,10.7,18.6,27,0.00,,,-99.99,102.0,HOBO +U30 +Weather +,2013-04-19 00:10:00,
2013-04-18 18:15:00,52.9,20.3,-100.00,WNW,293,10.1,19.7,27,0.00,,,-99.99,94.0,HOBO +U30 +Weather +,2013-04-19 00:15:00,
2013-04-18 18:20:00,53.0,20.7,-100.00,WNW,295,6.7,15.9,27,0.00,,,-99.99,84.0,HOBO +U30 +Weather +,2013-04-19 00:20:00,
2013-04-18 18:25:00,52.3,20.6,-100.00,NW,313,11.2,19.7,28,0.00,,,-99.99,77.0,HOBO +U30 +Weather +,2013-04-19 00:25:00,
2013-04-18 18:30:00,52.2,20.6,-100.00,WNW,291,14.1,23.7,28,0.00,,,-99.99,67.0,HOBO +U30 +Weather +,2013-04-19 00:30:00,
2013-04-18 18:35:00,52.1,20.9,-100.00,NW,307,10.1,19.2,29,0.00,,,-99.99,61.0,HOBO +U30 +Weather +,2013-04-19 00:35:00,
2013-04-18 18:40:00,51.9,21.0,-100.00,NW,324,10.1,17.4,29,0.00,,,-99.99,53.0,HOBO +U30 +Weather +,2013-04-19 00:40:00,
2013-04-18 18:45:00,52.1,21.0,-100.00,WNW,302,8.5,15.2,29,0.00,,,-99.99,44.0,HOBO +U30 +Weather +,2013-04-19 00:45:00,
2013-04-18 18:50:00,52.3,21.3,-100.00,WNW,293,7.8,13.0,29,0.00,,,-99.99,38.0,HOBO +U30 +Weather +,2013-04-19 00:50:00,
2013-04-18 18:55:00,52.3,20.9,-100.00,WNW,298,8.5,18.1,28,0.00,,,-99.99,42.0,HOBO +U30 +Weather +,2013-04-19 00:55:00,
2013-04-18 19:00:00,52.2,21.1,-100.00,WNW,288,6.7,13.4,29,0.00,,,-99.99,34.0,HOBO +U30 +Weather +,2013-04-19 01:00:00,
2013-04-18 19:05:00,51.9,21.3,-100.00,WNW,295,11.9,19.7,29,0.00,,,-99.99,33.0,HOBO +U30 +Weather +,2013-04-19 01:05:00,
2013-04-18 19:10:00,51.9,21.7,-100.00,WNW,293,7.8,15.9,30,0.00,,,-99.99,27.0,HOBO +U30 +Weather +,2013-04-19 01:10:00,
2013-04-18 19:15:00,51.8,21.8,-100.00,WNW,296,5.1,10.7,30,0.00,,,-99.99,26.0,HOBO +U30 +Weather +,2013-04-19 01:15:00,
2013-04-18 19:20:00,52.0,21.4,-100.00,WNW,284,7.8,17.4,29,0.00,,,-99.99,31.0,HOBO +U30 +Weather +,2013-04-19 01:20:00,
2013-04-18 19:25:00,52.1,21.7,-100.00,West,279,4.5,10.1,30,0.00,,,-99.99,26.0,HOBO +U30 +Weather +,2013-04-19 01:25:00,
2013-04-18 19:30:00,52.0,21.8,-100.00,West,277,6.3,13.4,30,0.00,,,-99.99,19.0,HOBO +U30 +Weather +,2013-04-19 01:30:00,
2013-04-18 19:35:00,51.9,22.2,-100.00,West,267,6.7,14.1,30,0.00,,,-99.99,17.0,HOBO +U30 +Weather +,2013-04-19 01:35:00,
2013-04-18 19:40:00,51.9,22.4,-100.00,West,271,7.8,13.4,31,0.00,,,-99.99,12.0,HOBO +U30 +Weather +,2013-04-19 01:40:00,
2013-04-18 19:45:00,51.8,22.5,-100.00,West,272,6.7,11.2,31,0.00,,,-99.99,7.0,HOBO +U30 +Weather +,2013-04-19 01:45:00,
2013-04-18 19:50:00,51.7,22.5,-100.00,West,277,9.6,15.9,31,0.00,,,-99.99,4.0,HOBO +U30 +Weather +,2013-04-19 01:50:00,
2013-04-18 19:55:00,51.8,22.7,-100.00,West,277,8.5,15.2,31,0.00,,,-99.99,3.0,HOBO +U30 +Weather +,2013-04-19 01:55:00,
2013-04-18 20:00:00,51.5,22.9,-100.00,West,265,11.2,19.7,32,0.00,,,-99.99,2.0,HOBO +U30 +Weather +,2013-04-19 02:00:00,
2013-04-18 20:05:00,51.2,23.5,-100.00,West,270,10.7,20.4,33,0.00,,,-99.99,1.0,HOBO +U30 +Weather +,2013-04-19 02:05:00,
2013-04-18 20:10:00,50.9,23.7,-100.00,West,272,10.1,18.1,34,0.00,,,-99.99,1.0,HOBO +U30 +Weather +,2013-04-19 02:10:00,
2013-04-18 20:15:00,51.1,23.2,-100.00,West,274,10.1,18.6,33,0.00,,,-99.99,1.0,HOBO +U30 +Weather +,2013-04-19 02:15:00,
2013-04-18 20:20:00,51.1,23.4,-100.00,West,272,6.3,10.7,33,0.00,,,-99.99,1.0,HOBO +U30 +Weather +,2013-04-19 02:20:00,
2013-04-18 20:25:00,51.2,23.3,-100.00,West,278,8.5,16.3,33,0.00,,,-99.99,1.0,HOBO +U30 +Weather +,2013-04-19 02:25:00,
2013-04-18 20:30:00,51.1,23.5,-100.00,West,279,10.1,16.3,33,0.00,,,-99.99,1.0,HOBO +U30 +Weather +,2013-04-19 02:30:00,
2013-04-18 20:35:00,51.1,23.4,-100.00,West,271,8.9,14.5,33,0.00,,,-99.99,1.0,HOBO +U30 +Weather +,2013-04-19 02:35:00,
2013-04-18 20:40:00,51.3,23.2,-100.00,West,275,7.8,13.4,33,0.00,,,-99.99,1.0,HOBO +U30 +Weather +,2013-04-19 02:40:00,
2013-04-18 20:45:00,51.4,23.0,-100.00,West,277,6.3,10.7,32,0.00,,,-99.99,1.0,HOBO +U30 +Weather +,2013-04-19 02:45:00,
2013-04-18 20:50:00,51.3,23.1,-100.00,WNW,282,6.3,11.2,32,0.00,,,-99.99,1.0,HOBO +U30 +Weather +,2013-04-19 02:50:00,
2013-04-18 20:55:00,51.2,23.2,-100.00,WNW,284,4.5,10.7,33,0.00,,,-99.99,1.0,HOBO +U30 +Weather +,2013-04-19 02:55:00,
2013-04-18 21:00:00,50.9,23.5,-100.00,West,277,5.6,10.7,33,0.00,,,-99.99,1.0,HOBO +U30 +Weather +,2013-04-19 03:00:00,
2013-04-18 21:05:00,50.5,23.8,-100.00,West,278,6.7,13.0,34,0.00,,,-99.99,1.0,HOBO +U30 +Weather +,2013-04-19 03:05:00,
2013-04-18 21:10:00,50.3,23.9,-100.00,West,277,5.1,8.5,35,0.00,,,-99.99,1.0,HOBO +U30 +Weather +,2013-04-19 03:10:00,
2013-04-18 21:15:00,50.1,24.1,-100.00,WNW,288,5.1,10.7,35,0.00,,,-99.99,1.0,HOBO +U30 +Weather +,2013-04-19 03:15:00,
2013-04-18 21:20:00,49.9,24.3,-100.00,WNW,289,6.3,10.7,36,0.00,,,-99.99,1.0,HOBO +U30 +Weather +,2013-04-19 03:20:00,
2013-04-18 21:25:00,49.7,24.3,-100.00,WNW,289,7.8,13.4,36,0.00,,,-99.99,1.0,HOBO +U30 +Weather +,2013-04-19 03:25:00,
2013-04-18 21:30:00,49.6,24.4,-100.00,WNW,292,6.3,11.2,37,0.00,,,-99.99,1.0,HOBO +U30 +Weather +,2013-04-19 03:30:00,
2013-04-18 21:35:00,49.5,24.3,-100.00,WNW,295,7.8,14.1,36,0.00,,,-99.99,1.0,HOBO +U30 +Weather +,2013-04-19 03:35:00,
2013-04-18 21:40:00,49.3,24.4,-100.00,WNW,292,7.4,14.5,37,0.00,,,-99.99,1.0,HOBO +U30 +Weather +,2013-04-19 03:40:00,
2013-04-18 21:45:00,49.1,24.5,-100.00,WNW,289,9.6,14.1,37,0.00,,,-99.99,1.0,HOBO +U30 +Weather +,2013-04-19 03:45:00,
2013-04-18 21:50:00,48.8,24.6,-100.00,WNW,291,5.6,9.6,38,0.00,,,-99.99,1.0,HOBO +U30 +Weather +,2013-04-19 03:50:00,
2013-04-18 21:55:00,48.6,24.8,-100.00,WNW,292,6.7,12.3,38,0.00,,,-99.99,1.0,HOBO +U30 +Weather +,2013-04-19 03:55:00,
2013-04-18 22:00:00,48.5,24.8,-100.00,WNW,300,7.4,12.3,39,0.00,,,-99.99,1.0,HOBO +U30 +Weather +,2013-04-19 04:00:00,
2013-04-18 22:05:00,48.3,24.7,-100.00,WNW,299,7.8,14.1,39,0.00,,,-99.99,1.0,HOBO +U30 +Weather +,2013-04-19 04:05:00,
2013-04-18 22:10:00,48.0,24.8,-100.00,WNW,302,6.3,12.3,39,0.00,,,-99.99,1.0,HOBO +U30 +Weather +,2013-04-19 04:10:00,
2013-04-18 22:15:00,47.7,24.8,-100.00,NW,306,6.3,13.0,40,0.00,,,-99.99,1.0,HOBO +U30 +Weather +,2013-04-19 04:15:00,
2013-04-18 22:20:00,47.6,24.7,-100.00,WNW,298,6.3,10.7,40,0.00,,,-99.99,1.0,HOBO +U30 +Weather +,2013-04-19 04:20:00,
2013-04-18 22:25:00,47.5,24.8,-100.00,WNW,289,6.7,11.2,40,0.00,,,-99.99,1.0,HOBO +U30 +Weather +,2013-04-19 04:25:00,
2013-04-18 22:30:00,47.2,25.0,-100.00,WNW,296,6.3,9.6,41,0.00,,,-99.99,1.0,HOBO +U30 +Weather +,2013-04-19 04:30:00,
2013-04-18 22:35:00,47.2,25.2,-100.00,WNW,298,5.6,10.1,41,0.00,,,-99.99,1.0,HOBO +U30 +Weather +,2013-04-19 04:35:00,
2013-04-18 22:40:00,47.0,25.2,-100.00,WNW,296,6.3,12.3,42,0.00,,,-99.99,1.0,HOBO +U30 +Weather +,2013-04-19 04:40:00,
2013-04-18 22:45:00,46.8,25.4,-100.00,NW,306,6.3,11.9,42,0.00,,,-99.99,1.0,HOBO +U30 +Weather +,2013-04-19 04:45:00,
2013-04-18 22:50:00,46.7,25.5,-100.00,WNW,296,5.6,11.2,43,0.00,,,-99.99,1.0,HOBO +U30 +Weather +,2013-04-19 04:50:00,
2013-04-18 22:55:00,46.4,25.5,-100.00,WNW,298,5.6,10.1,43,0.00,,,-99.99,1.0,HOBO +U30 +Weather +,2013-04-19 04:55:00,
2013-04-18 23:00:00,46.2,25.6,-100.00,NW,305,5.6,10.1,44,0.00,,,-99.99,1.0,HOBO +U30 +Weather +,2013-04-19 05:00:00,
2013-04-18 23:05:00,46.0,25.9,-100.00,NW,306,3.4,8.9,45,0.00,,,-99.99,1.0,HOBO +U30 +Weather +,2013-04-19 05:05:00,
2013-04-18 23:10:00,45.8,25.8,-100.00,WNW,299,4.0,8.5,45,0.00,,,-99.99,1.0,HOBO +U30 +Weather +,2013-04-19 05:10:00,
2013-04-18 23:15:00,45.7,25.9,-100.00,WNW,292,4.5,8.5,45,0.00,,,-99.99,1.0,HOBO +U30 +Weather +,2013-04-19 05:15:00,
2013-04-18 23:20:00,45.6,25.9,-100.00,WNW,295,4.5,8.9,45,0.00,,,-99.99,1.0,HOBO +U30 +Weather +,2013-04-19 05:20:00,
2013-04-18 23:25:00,45.5,25.9,-100.00,WNW,300,5.1,10.7,45,0.00,,,-99.99,1.0,HOBO +U30 +Weather +,2013-04-19 05:25:00,
2013-04-18 23:30:00,45.5,25.9,-100.00,WNW,293,5.1,9.6,46,0.00,,,-99.99,1.0,HOBO +U30 +Weather +,2013-04-19 05:30:00,
2013-04-18 23:35:00,45.5,26.0,-100.00,WNW,293,4.5,8.9,46,0.00,,,-99.99,1.0,HOBO +U30 +Weather +,2013-04-19 05:35:00,
2013-04-18 23:40:00,45.4,26.1,-100.00,WNW,296,4.5,7.8,46,0.00,,,-99.99,1.0,HOBO +U30 +Weather +,2013-04-19 05:40:00,
2013-04-18 23:45:00,45.4,26.1,-100.00,WNW,303,4.5,7.4,46,0.00,,,-99.99,1.0,HOBO +U30 +Weather +,2013-04-19 05:45:00,
2013-04-18 23:50:00,45.7,26.3,-100.00,WNW,289,3.4,7.8,46,0.00,,,-99.99,1.0,HOBO +U30 +Weather +,2013-04-19 05:50:00,
2013-04-18 23:55:00,45.8,26.3,-100.00,WNW,289,4.5,7.8,46,0.00,,,-99.99,1.0,HOBO +U30 +Weather +,2013-04-19 05:55:00,